TIME,DELAY(SENSOR),PRES,OXYGEN,RAWTEMP,T(OPTODE),TCPHASE,FLUOR,BETA(BETA700),BETA(BETA412),BETA(BETA440),CDOM,C(CSC),ED(ED412.40),ED(ED444.00),ED(ED489.70),ED(ED554.30),LU(LU411.80),LU(LU443.40),LU(LU489.60),LU(LU554.10),COMP,TILTX,TILTY,CHECK
1354505446,5807,874.0100097656250000,44.5838508605957000,662.9520263671875000,4.5307412147521970,54.3557891845703100,52,100,86,79,80,15108,2147756617,2147421513,2148012937,2147871277,2147647698,2147054875,2148258166,2147192786,2155,4,13,12465
1354509042,5807,949.8699951171875000,48.8096694946289060,673.9180908203125000,4.1686801910400390,53.8871192932128900,53,99,87,79,80,15109,2147754276,2147421705,2148009334,2147874093,2147642404,2147056777,2148261632,2147197001,761,4,13,55229
1354512642,5809,975.4299926757812000,50.0579795837402340,676.5587158203125000,4.0812931060791020,53.7453498840332000,52,99,86,79,81,15106,2147759122,2147418980,2148010267,2147875474,2147645129,2147053522,2148260854,2147195858,3524,4,13,54776
1354516242,5812,981.8800048828125000,50.0063018798828100,676.3590698242188000,4.0879020690917970,53.7480087280273440,52,100,91,79,81,15107,2147756964,2147423076,2148007990,2147870637,2147646345,2147058395,2148265097,2147196251,6,4,13,21171
1354519842,5808,995.9600219726562000,49.3041114807128900,675.4882202148438000,4.1167302131652830,53.8359718322753900,52,100,88,78,80,15107,2147758089,2147421915,2148009517,2147874779,2147646052,2147053083,2148263570,2147195830,259,4,13,15681
1354523442,5808,1004.1799926757812000,48.5251693725585940,673.4943237304688000,4.1826968193054200,53.9219894409179700,52,97,87,78,82,15105,2147758445,2147420608,2148007561,2147875840,2147646381,2147061330,2148259456,2147192475,3197,4,13,58618
1354527042,5810,995.2299804687500000,48.1763496398925800,673.4503173828125000,4.1841549873352050,53.9703712463378900,52,100,88,78,79,15048,2147759149,2147419657,2148011766,2147874194,2147646518,2147052562,2148259492,2147195474,3114,4,13,30035
1354530642,5809,991.1400146484375000,48.7572593688964840,674.7050170898438000,4.1426491737365720,53.9030303955078100,53,99,86,77,81,15042,2147756041,2147422656,2148011565,2147871762,2147644534,2147055716,2148262610,2147197549,311,4,13,30630
1354534242,5812,993.0999755859375000,48.8694190979003900,675.3416137695312000,4.1215820312500000,53.8973503112793000,53,100,83,79,80,15083,2147759899,2147422784,2148012123,2147876297,2147645430,2147053403,2148261668,2147193801,459,4,13,45395
1354537842,5809,996.2500000000000000,48.7208595275878900,675.0723266601562000,4.1304931640625000,53.9078483581543000,53,99,85,80,81,15003,2147758464,2147418349,2148006436,2147873033,2147645787,2147052361,2148260489,2147195163,630,4,13,45399
1354541442,5808,996.0700073242188000,48.7424201965332000,675.3532104492188000,4.1211991310119630,53.9155693054199200,53,99,85,80,80,15119,2147757229,2147420937,2148009993,2147873581,2147645988,2147057197,2148262445,2147195501,379,4,13,43142
1354545042,5811,997.4000244140625000,48.6210098266601560,674.7238159179688000,4.1420269012451170,53.9195213317871100,53,99,90,78,80,14997,2147755392,2147421193,2148008813,2147874779,2147644534,2147053595,2148259840,2147196489,247,4,13,53799
1354548642,5810,997.3300170898438000,48.6432991027832000,675.5582275390625000,4.1144118309021000,53.9282417297363300,52,99,88,81,82,15023,2147758537,2147421522,2148007405,2147873938,2147644352,2147051556,2148262198,2147199862,349,4,13,60617
1354552242,5805,996.4000244140625000,48.9602890014648440,676.7990722656250000,4.0733342170715330,53.8979110717773440,53,99,90,79,82,15047,2147759195,2147422701,2148008804,2147870262,2147645376,2147053449,2148270720,2147196169,3518,4,13,59401
1354555842,5809,1000.4699707031250000,49.5441818237304700,676.6229858398438000,4.0791649818420410,53.8137016296386700,53,97,90,78,81,15170,2147760256,2147419373,2148009947,2147873060,2147644745,2147059419,2148257508,2147196617,163,4,13,10753
1354559442,5808,996.8699951171875000,48.5806617736816400,675.8453979492188000,4.1049079895019530,53.9418983459472660,53,98,86,79,80,15170,2147758299,2147422866,2148011035,2147874523,2147647040,2147062381,2148265426,2147195721,265,4,13,31829
1354563042,5807,999.9400024414062000,48.4271888732910160,675.6090698242188000,4.1127300262451170,53.9614906311035160,53,97,89,79,81,15131,2147757330,2147423232,2148008667,2147874084,2147645266,2147052653,2148266697,2147196955,314,4,13,10849
1354566642,5811,1005.2399902343750000,48.6364402770996100,675.4395751953125000,4.1183381080627440,53.9283294677734400,52,98,85,79,80,15131,2147755986,2147420150,2148006491,2147872530,2147646582,2147057060,2148266075,2147197668,3375,4,13,30575
1354570242,5812,1005.5399780273438000,49.4220390319824200,676.4075927734375000,4.0862960815429690,53.8328590393066400,53,100,85,79,82,15055,2147757202,2147426057,2148009280,2147875254,2147645266,2147057874,2148266166,2147199168,55,5,13,34927
1354573842,5807,1004.8200073242188000,48.5371284484863300,675.3624267578125000,4.1208949089050290,53.9430618286132800,53,99,88,78,81,15114,2147758710,2147419721,2148008301,2147873417,2147645805,2147051794,2148264219,2147197065,3142,4,13,13905
1354577442,5810,1005.7299804687500000,48.2654418945312500,675.6317138671875000,4.1119799613952640,53.9828414916992200,52,100,91,114,80,15122,2147756708,2147421348,2148009161,2147874368,2147644141,2147056082,2148264402,2147197302,3520,4,13,8233
1354581042,5808,1004.1799926757812000,48.6120910644531250,676.0737915039062000,4.0973467826843260,53.9422492980957000,52,97,89,78,80,15155,2147757229,2147422619,2148008658,2147875739,2147643757,2147060050,2148263094,2147196059,3572,4,13,56256
1354584642,5807,1013.2700195312500000,48.9075813293457000,675.6166992187500000,4.1124758720397950,53.8881797790527340,52,100,87,78,80,15085,2147757357,2147419894,2148010203,2147874121,2147646372,2147053988,2148260288,2147195968,3357,4,13,60340
1354588242,5808,1002.2500000000000000,48.2396697998046900,675.8153076171875000,4.1059041023254395,53.9859313964843750,53,98,85,78,80,15141,2147755675,2147418486,2148013184,2147871296,2147643638,2147056932,2148261421,2147197366,179,4,13,47706
1354591842,5808,1002.8499755859375000,49.0898208618164060,676.1298217773438000,4.0954952239990230,53.8744812011718750,52,103,87,80,81,15171,2147757668,2147419657,2148012626,2147875300,2147646729,2147056694,2148264713,2147195373,3580,4,13,8168
1354595442,5811,987.2700195312500000,49.4004402160644500,677.7586059570312000,4.0415592193603520,53.8535804748535160,52,100,89,78,82,15173,2147758738,2147421769,2148007488,2147873984,2147645632,2147056374,2148263158,2147195035,3375,4,13,53411
1354599042,5805,1005.0900268554688000,49.8579483032226560,677.6146850585938000,4.0463261604309080,53.7877502441406250,52,100,88,80,81,15169,2147757933,2147422729,2148011044,2147872036,2147643099,2147056402,2148259977,2147198089,3176,4,13,15839
1354602642,5807,1002.4099731445312000,49.2094497680664060,677.2501831054688000,4.0583949089050290,53.8749809265136700,52,100,86,78,80,15169,2147755830,2147422180,2148012690,2147875520,2147644937,2147055945,2148261805,2147194880,147,4,13,24206
1354606242,5809,1000.3800048828125000,49.0614089965820300,676.8472900390625000,4.0717391967773440,53.8873405456543000,52,100,87,78,81,15169,2147756580,2147418560,2148011200,2147873993,2147644937,2147054793,2148258459,2147194944,340,4,13,64706
1354609842,5809,1007.3300170898438000,49.6760711669921900,677.4384155273438000,4.0521659851074220,53.8059616088867200,52,99,86,79,80,15172,2147755227,2147421778,2148011858,2147873654,2147645248,2147050715,2148262162,2147195465,233,4,13,14094
1354613442,5808,1003.5700073242188000,48.8968505859375000,676.8198242187500000,4.0726509094238280,53.9088401794433600,53,99,88,79,81,15170,2147757824,2147420754,2148011181,2147874980,2147644278,2147054939,2148259501,2147194294,3205,4,13,2829
1354617042,5806,1008.9400024414062000,49.5052413940429700,676.9445190429688000,4.0685210227966310,53.8254890441894500,52,99,85,79,81,15171,2147757101,2147420617,2148010678,2147875218,2147643913,2147053357,2148260242,2147202560,3121,4,13,52358
1354620642,5809,1004.0999755859375000,48.9396514892578100,677.1343994140625000,4.0622329711914060,53.9038200378418000,52,101,86,79,81,15171,2147753526,2147421046,2148011346,2147874697,2147647350,2147054180,2148261421,2147195218,45,4,13,7546
1354624242,5806,1013.2199707031250000,49.4224281311035160,676.4033813476562000,4.0864372253417970,53.8311882019043000,53,98,89,79,82,15166,2147757595,2147421421,2148014317,2147876379,2147647049,2147058441,2148262747,2147194688,3468,4,13,33724
1354627842,5807,1015.0000000000000000,48.3960914611816400,675.2299804687500000,4.1252751350402830,53.9554100036621100,52,98,86,78,81,15165,2147755355,2147421421,2148011794,2147876891,2147646116,2147061174,2148262217,2147198848,116,4,13,1529
1354631442,5810,1013.1699829101562000,48.1301498413085940,675.2136840820312000,4.1258139610290530,53.9960212707519500,53,99,85,78,81,15165,2147756690,2147418916,2148009801,2147876964,2147641088,2147056329,2148263268,2147196388,49,4,13,25479
1354635042,5808,1007.7399902343750000,48.2795295715332000,675.5836791992188000,4.1135687828063965,53.9812507629394500,53,100,87,78,81,15166,2147757110,2147421632,2148010066,2147876461,2147647533,2147054281,2148265636,2147194724,3022,4,13,57347
1354638642,5806,1003.6900024414062000,48.4162101745605500,676.7487792968750000,4.0750007629394530,53.9741210937500000,52,99,87,79,81,15165,2147752237,2147423524,2148012352,2147872813,2147646089,2147053979,2148260379,2147194624,460,4,13,54974
1354642242,5809,1011.5599975585938000,48.9256515502929700,677.3936157226562000,4.0536460876464840,53.9089698791503900,53,100,88,78,81,15164,2147754349,2147422537,2148010386,2147876096,2147645641,2147056192,2148260635,2147195821,3391,4,13,56411
1354645842,5810,1008.5399780273438000,48.0402908325195300,675.7385864257812000,4.1084399223327640,54.0129508972168000,53,101,85,78,80,15164,2147752987,2147421641,2148008731,2147872585,2147645632,2147057280,2148266825,2147195684,3564,4,13,10338
1354649442,5808,1007.1799926757812000,48.6103401184082000,676.1115112304688000,4.0961022377014160,53.9415397644043000,53,99,85,79,81,15158,2147755721,2147421430,2148010870,2147876388,2147645458,2147056118,2148262976,2147195190,3455,4,13,58398
1354650356,5809,1009.5900268554688000,48.2611007690429700,676.4033813476562000,4.0864372253417970,53.9924507141113300,53,99,84,78,81,15204,2147759872,2147418907,2148010075,2147875236,2147646592,2147056064,2148258514,2147197494,208,4,13,12670
